Time,TemperatureF,DewpointF,PressureIn,WindDirection,WindDirectionDegrees,WindSpeedMPH,WindSpeedGustMPH,Humidity,HourlyPrecipIn,Conditions,Clouds,dailyrainin,SoftwareType,DateUTC
2013-08-07 00:03:00,75.0,72.9,29.93,ESE,112,0.0,0.0,93,0.00,RA,,0.00,WeatherDisplay:10.37,2013-08-07 05:03:00,
2013-08-07 00:08:00,75.0,72.9,29.93,ESE,112,0.0,0.0,93,0.00,RA,,0.00,WeatherDisplay:10.37,2013-08-07 05:08:00,
2013-08-07 09:19:00,82.9,79.7,29.96,SE,135,1.2,2.3,90,0.00,CLR,,0.00,WeatherDisplay:10.37,2013-08-07 14:19:00,
2013-08-07 09:24:00,83.3,80.1,29.95,SE,135,1.2,0.0,90,0.00,CLR,,0.00,WeatherDisplay:10.37,2013-08-07 14:24:00,
2013-08-07 09:29:00,83.7,80.1,29.96,SE,135,1.2,0.0,89,0.00,CLR,,0.00,WeatherDisplay:10.37,2013-08-07 14:29:00,
2013-08-07 09:34:00,84.0,80.4,29.96,SE,135,0.0,0.0,89,0.00,CLR,,0.00,WeatherDisplay:10.37,2013-08-07 14:34:00,
2013-08-07 09:39:00,84.0,80.4,29.96,SE,135,0.0,0.0,89,0.00,CLR,,0.00,WeatherDisplay:10.37,2013-08-07 14:39:00,
2013-08-07 09:44:00,84.0,80.1,29.96,SE,135,0.0,0.0,88,0.00,CLR,,0.00,WeatherDisplay:10.37,2013-08-07 14:44:00,
2013-08-07 09:49:00,84.0,80.1,29.96,SE,135,0.0,0.0,88,0.00,CLR,,0.00,WeatherDisplay:10.37,2013-08-07 14:49:00,
2013-08-07 09:54:00,84.0,79.7,29.96,ESE,112,2.3,0.0,87,0.00,CLR,,0.00,WeatherDisplay:10.37,2013-08-07 14:54:00,
2013-08-07 09:59:00,84.0,79.7,29.96,ESE,112,0.0,0.0,87,0.00,CLR,,0.00,WeatherDisplay:10.37,2013-08-07 14:59:00,
2013-08-07 10:04:00,84.4,80.1,29.96,East,90,3.5,6.4,87,0.00,CLR,,0.00,WeatherDisplay:10.37,2013-08-07 15:04:00,
2013-08-07 10:34:00,85.8,80.4,29.97,ENE,68,0.0,0.0,84,0.00,CLR,,0.00,WeatherDisplay:10.37,2013-08-07 15:34:00,
2013-08-07 10:39:00,85.8,80.4,29.97,ENE,68,8.1,8.1,84,0.00,CLR,,0.00,WeatherDisplay:10.37,2013-08-07 15:39:00,
2013-08-07 10:44:00,86.2,80.8,29.97,ENE,68,1.2,2.6,84,0.00,CLR,,0.00,WeatherDisplay:10.37,2013-08-07 15:44:00,
2013-08-07 10:49:00,86.2,80.8,29.96,NNE,22,9.2,14.1,84,0.00,CLR,,0.00,WeatherDisplay:10.37,2013-08-07 15:49:00,
2013-08-07 10:54:00,86.4,80.9,29.97,NNE,22,1.2,0.0,84,0.00,CLR,,0.00,WeatherDisplay:10.37,2013-08-07 15:54:00,
2013-08-07 10:59:00,86.5,81.1,29.97,ENE,68,6.9,13.2,84,0.00,CLR,,0.00,WeatherDisplay:10.37,2013-08-07 15:59:00,
2013-08-07 11:04:00,86.7,80.9,29.97,ENE,68,9.2,9.2,83,0.00,CLR,,0.00,WeatherDisplay:10.37,2013-08-07 16:04:00,
2013-08-07 11:09:00,86.7,80.9,29.97,ENE,68,0.0,0.0,83,0.00,CLR,,0.00,WeatherDisplay:10.37,2013-08-07 16:09:00,
2013-08-07 11:14:00,86.7,80.9,29.97,ENE,68,3.5,6.7,83,0.00,CLR,,0.00,WeatherDisplay:10.37,2013-08-07 16:14:00,
2013-08-07 11:19:00,86.5,80.8,29.97,ENE,68,2.7,3.6,83,0.00,CLR,,0.00,WeatherDisplay:10.37,2013-08-07 16:19:00,
2013-08-07 11:24:00,86.5,80.8,29.97,NE,45,2.7,5.3,83,0.00,CLR,,0.00,WeatherDisplay:10.37,2013-08-07 16:24:00,
2013-08-07 11:29:00,86.7,80.9,29.97,ENE,68,3.5,6.0,83,0.00,CLR,,0.00,WeatherDisplay:10.37,2013-08-07 16:29:00,
2013-08-07 11:34:00,86.7,80.6,29.97,ENE,68,0.0,0.0,82,0.00,CLR,,0.00,WeatherDisplay:10.37,2013-08-07 16:34:00,
2013-08-07 11:39:00,87.1,81.3,29.97,ENE,68,4.0,7.9,83,0.00,CLR,,0.00,WeatherDisplay:10.37,2013-08-07 16:39:00,
2013-08-07 11:44:00,87.4,81.3,29.97,East,90,6.9,13.1,82,0.00,CLR,,0.00,WeatherDisplay:10.37,2013-08-07 16:44:00,
2013-08-07 11:49:00,87.3,81.1,29.96,NE,45,0.0,0.0,82,0.00,CLR,,0.00,WeatherDisplay:10.37,2013-08-07 16:49:00,
2013-08-07 11:54:00,87.1,80.9,29.96,NE,45,0.0,0.0,82,0.00,CLR,,0.00,WeatherDisplay:10.37,2013-08-07 16:54:00,
2013-08-07 11:59:00,86.9,80.7,29.96,NE,45,0.0,0.0,82,0.00,CLR,,0.00,WeatherDisplay:10.37,2013-08-07 16:59:00,
2013-08-07 12:04:00,86.9,80.7,29.96,NE,45,0.0,0.0,82,0.00,CLR,,0.00,WeatherDisplay:10.37,2013-08-07 17:04:00,
2013-08-07 12:09:00,86.7,80.6,29.96,NE,45,3.5,5.7,82,0.00,CLR,,0.00,WeatherDisplay:10.37,2013-08-07 17:09:00,
2013-08-07 12:14:00,86.9,80.7,29.96,ENE,68,6.9,14.0,82,0.00,CLR,,0.00,WeatherDisplay:10.37,2013-08-07 17:14:00,
2013-08-07 12:19:00,87.1,80.5,29.96,ENE,68,5.8,10.4,81,0.00,CLR,,0.00,WeatherDisplay:10.37,2013-08-07 17:19:00,
2013-08-07 12:24:00,87.1,80.5,29.96,ENE,68,11.5,0.0,81,0.00,CLR,,0.00,WeatherDisplay:10.37,2013-08-07 17:24:00,
2013-08-07 12:29:00,87.1,80.2,29.95,ENE,68,4.6,8.8,80,0.00,CLR,,0.00,WeatherDisplay:10.37,2013-08-07 17:29:00,
2013-08-07 12:34:00,87.1,79.8,29.95,ENE,68,5.8,5.8,79,0.00,CLR,,0.00,WeatherDisplay:10.37,2013-08-07 17:34:00,
2013-08-07 12:39:00,87.4,80.5,29.95,SE,135,4.6,9.6,80,0.00,CLR,,0.00,WeatherDisplay:10.37,2013-08-07 17:39:00,
2013-08-07 12:44:00,87.6,80.7,29.95,ESE,112,4.0,4.0,80,0.00,CLR,,0.00,WeatherDisplay:10.37,2013-08-07 17:44:00,
2013-08-07 12:49:00,87.6,80.3,29.94,SE,135,6.9,12.5,79,0.00,CLR,,0.00,WeatherDisplay:10.37,2013-08-07 17:49:00,
2013-08-07 12:54:00,87.6,79.9,29.94,ENE,68,9.2,17.5,78,0.00,CLR,,0.00,WeatherDisplay:10.37,2013-08-07 17:54:00,
2013-08-07 12:59:00,87.4,79.7,29.94,ENE,68,3.5,6.7,78,0.00,CLR,,0.00,WeatherDisplay:10.37,2013-08-07 17:59:00,
2013-08-07 13:04:00,87.1,79.4,29.94,ENE,68,2.3,4.2,78,0.00,CLR,,0.00,WeatherDisplay:10.37,2013-08-07 18:04:00,
2013-08-07 13:09:00,87.1,79.4,29.94,East,90,0.0,0.0,78,0.00,CLR,,0.00,WeatherDisplay:10.37,2013-08-07 18:09:00,
2013-08-07 13:14:00,87.1,79.8,29.94,ESE,112,2.3,5.3,79,0.00,CLR,,0.00,WeatherDisplay:10.37,2013-08-07 18:14:00,
2013-08-07 13:19:00,87.1,79.8,29.94,SE,135,2.3,2.3,79,0.00,CLR,,0.00,WeatherDisplay:10.37,2013-08-07 18:19:00,
2013-08-07 13:24:00,87.1,79.8,29.93,SE,135,4.6,7.9,79,0.00,CLR,,0.00,WeatherDisplay:10.37,2013-08-07 18:24:00,
2013-08-07 13:29:00,87.6,80.3,29.93,SSE,158,6.9,13.6,79,0.00,CLR,,0.00,WeatherDisplay:10.37,2013-08-07 18:29:00,
2013-08-07 13:34:00,87.8,79.7,29.93,SSE,158,9.2,18.4,77,0.00,CLR,,0.00,WeatherDisplay:10.37,2013-08-07 18:34:00,
2013-08-07 13:39:00,88.0,79.5,29.94,SSE,158,3.5,0.0,76,0.00,CLR,,0.00,WeatherDisplay:10.37,2013-08-07 18:39:00,
2013-08-07 13:44:00,87.6,79.1,29.93,South,180,0.0,0.0,76,0.00,CLR,,0.00,WeatherDisplay:10.37,2013-08-07 18:44:00,
2013-08-07 13:49:00,87.6,80.3,29.94,South,180,0.0,0.0,79,0.00,CLR,,0.00,WeatherDisplay:10.37,2013-08-07 18:49:00,
2013-08-07 13:54:00,87.4,80.1,29.94,South,180,1.2,0.0,79,0.00,CLR,,0.00,WeatherDisplay:10.37,2013-08-07 18:54:00,
2013-08-07 13:59:00,87.3,80.3,29.93,South,180,0.0,0.0,80,0.00,CLR,,0.00,WeatherDisplay:10.37,2013-08-07 18:59:00,
2013-08-07 14:04:00,87.1,80.9,29.93,WSW,248,0.0,3.2,82,0.00,CLR,,0.00,WeatherDisplay:10.37,2013-08-07 19:04:00,
2013-08-07 14:09:00,87.3,81.1,29.93,SW,225,4.9,9.6,82,0.00,CLR,,0.00,WeatherDisplay:10.37,2013-08-07 19:09:00,
2013-08-07 14:14:00,87.4,81.3,29.93,SSW,202,2.3,2.3,82,0.00,CLR,,0.00,WeatherDisplay:10.37,2013-08-07 19:14:00,
2013-08-07 14:19:00,87.1,80.9,29.93,South,180,0.0,0.0,82,0.00,CLR,,0.00,WeatherDisplay:10.37,2013-08-07 19:19:00,
2013-08-07 14:24:00,87.1,80.9,29.92,SSE,158,4.9,9.6,82,0.00,CLR,,0.00,WeatherDisplay:10.37,2013-08-07 19:24:00,
2013-08-07 14:29:00,87.3,81.1,29.92,SW,225,4.0,6.7,82,0.00,CLR,,0.00,WeatherDisplay:10.37,2013-08-07 19:29:00,
2013-08-07 14:34:00,87.4,81.3,29.92,SSE,158,1.2,1.2,82,0.00,CLR,,0.00,WeatherDisplay:10.37,2013-08-07 19:34:00,
2013-08-07 14:39:00,87.4,80.9,29.92,SSE,158,2.3,5.3,81,0.00,CLR,,0.00,WeatherDisplay:10.37,2013-08-07 19:39:00,
2013-08-07 14:44:00,87.6,81.1,29.92,SSW,202,0.0,0.0,81,0.00,CLR,,0.00,WeatherDisplay:10.37,2013-08-07 19:44:00,
2013-08-07 14:49:00,87.8,80.9,29.92,SW,225,0.4,0.9,80,0.00,CLR,,0.00,WeatherDisplay:10.37,2013-08-07 19:49:00,
2013-08-07 14:54:00,87.8,80.9,29.91,SSE,158,2.3,0.0,80,0.00,CLR,,0.00,WeatherDisplay:10.37,2013-08-07 19:54:00,
2013-08-07 14:59:00,88.0,80.6,29.91,SW,225,4.0,5.4,79,0.00,CLR,,0.00,WeatherDisplay:10.37,2013-08-07 19:59:00,
2013-08-07 15:04:00,88.0,80.6,29.91,SSW,202,4.9,9.6,79,0.00,CLR,,0.00,WeatherDisplay:10.37,2013-08-07 20:04:00,
2013-08-07 15:09:00,88.0,80.6,29.91,SSW,202,5.8,10.5,79,0.00,CLR,,0.00,WeatherDisplay:10.37,2013-08-07 20:09:00,
2013-08-07 15:14:00,88.0,80.6,29.92,SW,225,0.0,0.8,79,0.00,CLR,,0.00,WeatherDisplay:10.37,2013-08-07 20:14:00,
2013-08-07 15:19:00,88.0,80.6,29.91,SW,225,1.2,1.6,79,0.00,CLR,,0.00,WeatherDisplay:10.37,2013-08-07 20:19:00,
2013-08-07 15:24:00,88.0,80.6,29.91,SSE,158,6.2,12.3,79,0.00,CLR,,0.00,WeatherDisplay:10.37,2013-08-07 20:24:00,
2013-08-07 15:29:00,88.0,80.6,29.91,SW,225,5.8,10.6,79,0.00,CLR,,0.00,WeatherDisplay:10.37,2013-08-07 20:29:00,
2013-08-07 15:34:00,88.0,81.0,29.91,SSW,202,13.8,25.8,80,0.00,CLR,,0.00,WeatherDisplay:10.37,2013-08-07 20:34:00,
2013-08-07 15:39:00,88.2,81.2,29.90,SSW,202,2.3,2.3,80,0.00,CLR,,0.00,WeatherDisplay:10.37,2013-08-07 20:39:00,
2013-08-07 15:44:00,88.3,81.4,29.90,SSW,202,0.0,0.0,80,0.00,CLR,,0.00,WeatherDisplay:10.37,2013-08-07 20:44:00,
2013-08-07 15:49:00,88.5,81.2,29.91,SSW,202,1.2,1.2,79,0.00,CLR,,0.00,WeatherDisplay:10.37,2013-08-07 20:49:00,
2013-08-07 15:55:00,88.5,81.6,29.91,WSW,248,0.0,0.0,80,0.00,CLR,,0.00,WeatherDisplay:10.37,2013-08-07 20:55:00,
2013-08-07 16:00:00,88.7,81.3,29.90,South,180,0.0,0.0,79,0.00,CLR,,0.00,WeatherDisplay:10.37,2013-08-07 21:00:00,
2013-08-07 16:05:00,88.9,81.9,29.90,South,180,0.0,0.0,80,0.00,CLR,,0.00,WeatherDisplay:10.37,2013-08-07 21:05:00,
2013-08-07 16:10:00,88.9,81.9,29.90,SSW,202,3.5,6.1,80,0.00,CLR,,0.00,WeatherDisplay:10.37,2013-08-07 21:10:00,
2013-08-07 16:15:00,89.1,81.7,29.90,SSW,202,4.9,7.2,79,0.00,CLR,,0.00,WeatherDisplay:10.37,2013-08-07 21:15:00,
2013-08-07 16:20:00,89.2,81.9,29.90,SW,225,0.0,0.0,79,0.00,CLR,,0.00,WeatherDisplay:10.37,2013-08-07 21:20:00,
2013-08-07 16:25:00,89.2,81.9,29.89,SSE,158,2.3,4.9,79,0.00,CLR,,0.00,WeatherDisplay:10.37,2013-08-07 21:25:00,
2013-08-07 16:30:00,88.9,81.5,29.90,SSW,202,2.3,5.3,79,0.00,CLR,,0.00,WeatherDisplay:10.37,2013-08-07 21:30:00,
2013-08-07 16:35:00,88.9,81.5,29.90,SSW,202,4.9,0.0,79,0.00,CLR,,0.00,WeatherDisplay:10.37,2013-08-07 21:35:00,
2013-08-07 16:41:00,88.9,81.5,29.89,NNW,338,0.0,0.0,79,0.00,CLR,,0.00,WeatherDisplay:10.37,2013-08-07 21:41:00,
2013-08-07 16:46:00,88.9,81.5,29.89,SW,225,2.3,3.5,79,0.00,CLR,,0.00,WeatherDisplay:10.37,2013-08-07 21:46:00,
2013-08-07 16:51:00,88.9,81.5,29.89,WSW,248,2.3,2.3,79,0.00,CLR,,0.00,WeatherDisplay:10.37,2013-08-07 21:51:00,
2013-08-07 16:56:00,89.1,81.7,29.89,SSE,158,0.0,0.0,79,0.00,CLR,,0.00,WeatherDisplay:10.37,2013-08-07 21:56:00,
2013-08-07 17:01:00,89.2,81.9,29.89,SW,225,0.0,0.0,79,0.00,CLR,,0.00,WeatherDisplay:10.37,2013-08-07 22:01:00,
2013-08-07 17:06:00,89.2,81.9,29.90,NNW,338,0.0,0.0,79,0.00,CLR,,0.00,WeatherDisplay:10.37,2013-08-07 22:06:00,
2013-08-07 17:11:00,89.4,82.0,29.90,SE,135,9.2,16.6,79,0.00,CLR,,0.00,WeatherDisplay:10.37,2013-08-07 22:11:00,
2013-08-07 17:16:00,88.0,79.1,29.91,ENE,68,13.8,27.0,75,0.00,CLR,,0.00,WeatherDisplay:10.37,2013-08-07 22:16:00,
2013-08-07 17:21:00,86.4,75.8,29.90,ESE,112,13.8,16.4,71,0.00,CLR,,0.00,WeatherDisplay:10.37,2013-08-07 22:21:00,
2013-08-07 17:26:00,84.4,74.8,29.91,ESE,112,3.5,7.0,73,0.00,CLR,,0.00,WeatherDisplay:10.37,2013-08-07 22:26:00,
2013-08-07 17:31:00,82.0,75.3,29.91,SE,135,6.9,14.0,80,0.02,RA,,0.02,WeatherDisplay:10.37,2013-08-07 22:31:00,
2013-08-07 17:36:00,80.1,74.4,29.91,SE,135,0.0,0.0,83,0.06,RA,,0.06,WeatherDisplay:10.37,2013-08-07 22:36:00,
2013-08-07 17:41:00,79.3,74.1,29.91,WNW,292,0.0,0.0,84,0.08,RA,,0.08,WeatherDisplay:10.37,2013-08-07 22:41:00,
2013-08-07 17:46:00,78.6,74.1,29.91,WNW,292,0.0,0.0,86,0.10,RA,,0.10,WeatherDisplay:10.37,2013-08-07 22:46:00,
2013-08-07 17:51:00,78.1,73.5,29.90,WNW,292,0.0,0.0,86,0.12,RA,,0.12,WeatherDisplay:10.37,2013-08-07 22:51:00,
2013-08-07 17:56:00,78.1,73.9,29.89,WNW,292,0.0,0.0,87,0.12,RA,,0.12,WeatherDisplay:10.37,2013-08-07 22:56:00,
2013-08-07 18:01:00,77.5,73.4,29.89,WNW,292,0.0,0.0,87,0.14,RA,,0.14,WeatherDisplay:10.37,2013-08-07 23:01:00,
2013-08-07 18:06:00,77.2,73.3,29.89,WNW,292,0.0,0.0,88,0.16,RA,,0.16,WeatherDisplay:10.37,2013-08-07 23:06:00,
2013-08-07 18:11:00,77.2,73.7,29.89,WNW,292,0.0,0.0,89,0.16,RA,,0.16,WeatherDisplay:10.37,2013-08-07 23:11:00,
2013-08-07 18:16:00,77.2,73.7,29.89,WNW,292,0.0,0.0,89,0.16,CLR,,0.16,WeatherDisplay:10.37,2013-08-07 23:16:00,
2013-08-07 18:21:00,77.4,73.9,29.89,WNW,292,0.0,0.0,89,0.16,CLR,,0.16,WeatherDisplay:10.37,2013-08-07 23:21:00,
2013-08-07 18:26:00,77.4,74.2,29.89,WNW,292,0.0,0.0,90,0.16,CLR,,0.16,WeatherDisplay:10.37,2013-08-07 23:26:00,
2013-08-07 18:31:00,77.4,74.2,29.89,WNW,292,0.0,0.0,90,0.14,CLR,,0.16,WeatherDisplay:10.37,2013-08-07 23:31:00,
2013-08-07 18:36:00,77.5,74.4,29.89,WNW,292,0.0,0.0,90,0.10,CLR,,0.16,WeatherDisplay:10.37,2013-08-07 23:36:00,
2013-08-07 18:41:00,77.5,74.7,29.89,WNW,292,0.0,0.0,91,0.08,CLR,,0.16,WeatherDisplay:10.37,2013-08-07 23:41:00,
2013-08-07 18:46:00,78.1,75.2,29.89,WNW,292,0.0,0.0,91,0.06,CLR,,0.16,WeatherDisplay:10.37,2013-08-07 23:46:00,
2013-08-07 18:51:00,78.1,75.2,29.89,WNW,292,0.0,0.0,91,0.04,CLR,,0.16,WeatherDisplay:10.37,2013-08-07 23:51:00,
2013-08-07 18:56:00,78.4,75.6,29.89,WNW,292,0.0,0.0,91,0.04,CLR,,0.16,WeatherDisplay:10.37,2013-08-07 23:56:00,
2013-08-07 19:01:00,78.6,75.8,29.89,WNW,292,0.0,0.0,91,0.02,CLR,,0.16,WeatherDisplay:10.37,2013-08-08 00:01:00,
2013-08-07 19:06:00,78.6,75.8,29.89,WNW,292,0.0,0.0,91,0.00,CLR,,0.16,WeatherDisplay:10.37,2013-08-08 00:06:00,
2013-08-07 19:11:00,78.6,75.8,29.89,WNW,292,0.0,0.0,91,0.00,CLR,,0.16,WeatherDisplay:10.37,2013-08-08 00:11:00,
2013-08-07 19:16:00,78.6,75.8,29.89,WNW,292,0.0,0.0,91,0.00,CLR,,0.16,WeatherDisplay:10.37,2013-08-08 00:16:00,
2013-08-07 19:19:00,78.6,75.8,29.90,WNW,292,0.0,0.0,91,0.00,CLR,,0.16,WeatherDisplay:10.37,2013-08-08 00:19:00,
2013-08-07 19:24:00,78.6,75.8,29.91,WNW,292,0.0,0.0,91,0.00,CLR,,0.16,WeatherDisplay:10.37,2013-08-08 00:24:00,
2013-08-07 19:25:00,78.6,75.8,29.91,WNW,292,0.0,0.0,91,0.00,CLR,,0.16,WeatherDisplay:10.37,2013-08-08 00:25:00,
2013-08-07 19:30:00,78.6,75.8,29.90,WNW,292,0.0,0.0,91,0.00,CLR,,0.16,WeatherDisplay:10.37,2013-08-08 00:30:00,
2013-08-07 19:32:00,78.6,75.8,29.91,WNW,292,0.0,0.0,91,0.00,CLR,,0.16,WeatherDisplay:10.37,2013-08-08 00:32:00,
2013-08-07 19:37:00,79.0,76.5,29.91,WNW,292,0.0,0.0,92,0.00,CLR,,0.16,WeatherDisplay:10.37,2013-08-08 00:37:00,
2013-08-07 19:42:00,79.0,76.5,29.91,WNW,292,0.0,0.0,92,0.00,CLR,,0.16,WeatherDisplay:10.37,2013-08-08 00:42:00,
2013-08-07 19:47:00,79.0,76.5,29.91,WNW,292,0.0,0.0,92,0.00,CLR,,0.16,WeatherDisplay:10.37,2013-08-08 00:47:00,
2013-08-07 19:52:00,79.0,76.5,29.92,WNW,292,0.0,0.0,92,0.00,CLR,,0.16,WeatherDisplay:10.37,2013-08-08 00:52:00,
2013-08-07 19:57:00,79.0,76.5,29.92,WNW,292,0.0,0.0,92,0.00,CLR,,0.16,WeatherDisplay:10.37,2013-08-08 00:57:00,
2013-08-07 20:02:00,79.0,76.5,29.91,West,270,0.0,0.0,92,0.00,CLR,,0.16,WeatherDisplay:10.37,2013-08-08 01:02:00,
2013-08-07 20:07:00,79.0,76.5,29.91,WSW,248,0.0,0.0,92,0.00,CLR,,0.16,WeatherDisplay:10.37,2013-08-08 01:07:00,
2013-08-07 20:12:00,79.0,76.5,29.91,WSW,248,0.0,0.0,92,0.00,CLR,,0.16,WeatherDisplay:10.37,2013-08-08 01:12:00,
2013-08-07 20:17:00,79.0,76.1,29.91,WSW,248,0.0,0.0,91,0.00,CLR,,0.16,WeatherDisplay:10.37,2013-08-08 01:17:00,
2013-08-07 20:22:00,78.8,75.9,29.91,WSW,248,0.0,0.0,91,0.00,CLR,,0.16,WeatherDisplay:10.37,2013-08-08 01:22:00,
2013-08-07 20:27:00,78.6,75.8,29.91,WSW,248,0.0,0.0,91,0.00,CLR,,0.16,WeatherDisplay:10.37,2013-08-08 01:27:00,
2013-08-07 20:32:00,78.6,75.8,29.91,WSW,248,0.0,0.0,91,0.00,CLR,,0.16,WeatherDisplay:10.37,2013-08-08 01:32:00,
2013-08-07 20:37:00,78.6,75.8,29.91,WSW,248,0.0,0.0,91,0.00,CLR,,0.16,WeatherDisplay:10.37,2013-08-08 01:37:00,
2013-08-07 20:42:00,78.6,75.8,29.91,WSW,248,0.0,0.0,91,0.00,CLR,,0.16,WeatherDisplay:10.37,2013-08-08 01:42:00,
2013-08-07 20:47:00,78.6,75.8,29.91,WSW,248,0.0,0.0,91,0.00,CLR,,0.16,WeatherDisplay:10.37,2013-08-08 01:47:00,
2013-08-07 20:52:00,78.6,76.1,29.91,SSE,158,0.0,0.0,92,0.00,CLR,,0.16,WeatherDisplay:10.37,2013-08-08 01:52:00,
2013-08-07 20:57:00,78.4,75.9,29.91,SSE,158,0.0,0.0,92,0.00,CLR,,0.16,WeatherDisplay:10.37,2013-08-08 01:57:00,
2013-08-07 21:02:00,78.4,75.9,29.91,SSE,158,0.0,0.0,92,0.00,CLR,,0.16,WeatherDisplay:10.37,2013-08-08 02:02:00,
2013-08-07 21:07:00,78.4,75.9,29.92,SSE,158,0.0,0.0,92,0.00,CLR,,0.16,WeatherDisplay:10.37,2013-08-08 02:07:00,
2013-08-07 21:12:00,78.4,75.9,29.92,SSE,158,0.0,0.0,92,0.00,CLR,,0.16,WeatherDisplay:10.37,2013-08-08 02:12:00,
2013-08-07 21:17:00,78.4,75.9,29.92,SSE,158,0.0,0.0,92,0.00,CLR,,0.16,WeatherDisplay:10.37,2013-08-08 02:17:00,
2013-08-07 21:22:00,78.1,75.6,29.93,SSE,158,0.0,0.0,92,0.00,CLR,,0.16,WeatherDisplay:10.37,2013-08-08 02:22:00,
2013-08-07 21:27:00,78.1,75.6,29.93,SSE,158,0.0,0.0,92,0.00,CLR,,0.16,WeatherDisplay:10.37,2013-08-08 02:27:00,
2013-08-07 21:32:00,78.1,75.6,29.93,SSE,158,0.0,0.0,92,0.00,CLR,,0.16,WeatherDisplay:10.37,2013-08-08 02:32:00,
2013-08-07 21:37:00,78.1,75.6,29.94,SSE,158,0.0,0.0,92,0.00,CLR,,0.16,WeatherDisplay:10.37,2013-08-08 02:37:00,
2013-08-07 21:42:00,78.1,75.6,29.94,SSE,158,0.0,0.0,92,0.00,CLR,,0.16,WeatherDisplay:10.37,2013-08-08 02:42:00,
2013-08-07 21:47:00,78.1,75.6,29.94,SSE,158,0.0,0.0,92,0.00,CLR,,0.16,WeatherDisplay:10.37,2013-08-08 02:47:00,
2013-08-07 21:52:00,78.1,75.6,29.94,SSE,158,0.0,0.0,92,0.00,CLR,,0.16,WeatherDisplay:10.37,2013-08-08 02:52:00,
2013-08-07 21:57:00,77.9,75.4,29.94,SSE,158,0.0,0.0,92,0.00,CLR,,0.16,WeatherDisplay:10.37,2013-08-08 02:57:00,
2013-08-07 22:01:00,77.9,75.4,29.94,SSE,158,0.0,0.0,92,0.00,CLR,,0.16,WeatherDisplay:10.37,2013-08-08 03:01:00,
2013-08-07 22:06:00,77.7,75.2,29.94,SSE,158,0.0,0.0,92,0.00,CLR,,0.16,WeatherDisplay:10.37,2013-08-08 03:06:00,
2013-08-07 22:11:00,77.7,75.2,29.94,SSE,158,0.0,0.0,92,0.00,CLR,,0.16,WeatherDisplay:10.37,2013-08-08 03:11:00,
2013-08-07 22:16:00,77.5,75.0,29.94,SSE,158,0.0,0.0,92,0.00,CLR,,0.16,WeatherDisplay:10.37,2013-08-08 03:16:00,
2013-08-07 22:21:00,77.5,75.0,29.95,SSE,158,0.0,0.0,92,0.00,CLR,,0.16,WeatherDisplay:10.37,2013-08-08 03:21:00,
2013-08-07 22:26:00,77.5,75.0,29.95,SSE,158,0.0,0.0,92,0.00,CLR,,0.16,WeatherDisplay:10.37,2013-08-08 03:26:00,
2013-08-07 22:31:00,77.5,75.0,29.95,SSE,158,0.0,0.0,92,0.00,CLR,,0.16,WeatherDisplay:10.37,2013-08-08 03:31:00,
2013-08-07 22:36:00,77.4,74.9,29.95,SSE,158,0.0,0.0,92,0.00,CLR,,0.16,WeatherDisplay:10.37,2013-08-08 03:36:00,
2013-08-07 22:41:00,77.4,74.9,29.95,SSE,158,0.0,0.0,92,0.00,CLR,,0.16,WeatherDisplay:10.37,2013-08-08 03:41:00,
2013-08-07 22:46:00,77.4,74.9,29.95,SSE,158,0.0,0.0,92,0.00,CLR,,0.16,WeatherDisplay:10.37,2013-08-08 03:46:00,
2013-08-07 22:51:00,77.4,74.9,29.95,SSE,158,0.0,0.0,92,0.00,CLR,,0.16,WeatherDisplay:10.37,2013-08-08 03:51:00,
2013-08-07 22:56:00,77.4,74.9,29.95,SSE,158,0.0,0.0,92,0.00,CLR,,0.16,WeatherDisplay:10.37,2013-08-08 03:56:00,
2013-08-07 23:01:00,77.4,74.9,29.94,SSE,158,0.0,0.0,92,0.00,CLR,,0.16,WeatherDisplay:10.37,2013-08-08 04:01:00,
2013-08-07 23:02:00,77.4,74.9,29.94,SSE,158,0.0,0.0,92,0.00,CLR,,0.16,WeatherDisplay:10.37,2013-08-08 04:02:00,
2013-08-07 23:03:00,77.4,74.9,29.94,SSE,158,0.0,0.0,92,0.00,CLR,,0.16,WeatherDisplay:10.37,2013-08-08 04:03:00,
2013-08-07 23:04:00,77.4,74.9,29.94,SSE,158,0.0,0.0,92,0.00,CLR,,0.16,WeatherDisplay:10.37,2013-08-08 04:04:00,
2013-08-07 23:07:00,77.5,75.0,29.94,SSE,158,0.0,0.0,92,0.00,CLR,,0.16,WeatherDisplay:10.37,2013-08-08 04:07:00,
2013-08-07 23:12:00,77.5,75.0,29.95,SSE,158,0.0,0.0,92,0.00,CLR,,0.16,WeatherDisplay:10.37,2013-08-08 04:12:00,
2013-08-07 23:17:00,77.4,74.9,29.95,SSE,158,0.0,0.0,92,0.00,CLR,,0.16,WeatherDisplay:10.37,2013-08-08 04:17:00,
2013-08-07 23:22:00,77.4,74.9,29.95,SSE,158,0.0,0.0,92,0.00,CLR,,0.16,WeatherDisplay:10.37,2013-08-08 04:22:00,
2013-08-07 23:27:00,77.4,74.9,29.94,SSE,158,0.0,0.0,92,0.00,CLR,,0.16,WeatherDisplay:10.37,2013-08-08 04:27:00,
2013-08-07 23:32:00,77.2,74.7,29.94,SSE,158,0.0,0.0,92,0.00,CLR,,0.16,WeatherDisplay:10.37,2013-08-08 04:32:00,
2013-08-07 23:37:00,77.2,74.7,29.94,SSE,158,0.0,0.0,92,0.00,CLR,,0.16,WeatherDisplay:10.37,2013-08-08 04:37:00,
2013-08-07 23:42:00,77.2,74.7,29.94,SSE,158,0.0,0.0,92,0.00,CLR,,0.16,WeatherDisplay:10.37,2013-08-08 04:42:00,
2013-08-07 23:47:00,77.4,74.9,29.94,SSE,158,0.0,0.0,92,0.00,CLR,,0.16,WeatherDisplay:10.37,2013-08-08 04:47:00,
2013-08-07 23:52:00,77.4,74.9,29.94,SSE,158,0.0,0.0,92,0.00,CLR,,0.16,WeatherDisplay:10.37,2013-08-08 04:52:00,
2013-08-07 23:57:00,77.2,74.7,29.94,SSE,158,0.0,0.0,92,0.00,CLR,,0.16,WeatherDisplay:10.37,2013-08-08 04:57:00,